Location: Abbey Hill
(34.0751°N, 84.0688°W)
Time: 00:38:37
(UTC+00:00)

X-37B - Pass Details

Date: 29 September 2021
Orbit: 385 x 389 km, 45.0° (Epoch: 13 October)

Event Time Altitude Azimuth Distance (km) Brightness Sun altitude
Exits shadow 10:44:11 - 319° (NW) 1,829 3.6 -10.2°
Reaches altitude 10° 10:45:35 10° 335° (NNW) 1,413 3.2 -9.9°
Maximum altitude 10:47:36 15° 14° (NNE) 1,133 3.2 -9.5°
Drops below altitude 10° 10:49:36 10° 53° (NE) 1,412 4.4 -9.1°
Sets 10:52:16 0° 77° (ENE) 2,266 6.6 -8.5°
